Regional Weather Roundup
Issued by NWS Wakefield, VA

Home | Current Version | Previous Version | Graphics & Text | Print | Product List | Glossary On
Versions: 1 2 3 4 5 6 7 8 9 10 11 12 13 14 15 16 17 18 19 20 21 22 23 24 25 26 27
000
ASUS41 KAKQ 250814
RWRAKQ

REGIONAL WEATHER ROUNDUP
NATIONAL WEATHER SERVICE WAKEFIELD VA
300 AM EST SAT FEB 25 2017

Note: "fair" indicates few or no clouds below 12,000 feet with no
significant weather and/or obstructions to visibility. * = Denotes
station may not report precipitation (e.g., rain,snow,etc.),
thunder or fog.

VAZ042-051-052>054-056-250900-
NORTHERN VIRGINIA

CITY           SKY/WX    TMP DP  RH WIND       PRES   REMARKS
WASH NATIONAL  PTCLDY    59  57  93 S12       29.74F
DULLES         MOCLDY    62  56  80 S6        29.73F
FORT BELVOIR   CLEAR     58  55  89 SE7       29.74F
QUANTICO       PTCLDY    54  54 100 SW7       29.75F
FREDERICKSBRG* PTCLDY    61  59  92 S9        29.74F
STAFFORD*      PTCLDY    59  58  96 SE5       29.78F
WARRENTON      PTCLDY    64  55  74 S6        29.73F
CULPEPER*      CLOUDY    63  58  85 CALM      29.74F
MANASSAS*        N/A     63  57  81 S6        29.74F
LEESBURG*      MOCLDY    61  61 100 MISG      29.73F
WINCHESTER     PTCLDY    59  52  77 S9        29.70S
FRONT ROYAL*   NOT AVBL
LURAY*         MOSUNNY   61  54  77 SW8       29.70F
$$

VAZ048-049-060>072-079>083-250900-
CENTRAL AND SOUTH CENTRAL VIRGINIA

CITY           SKY/WX    TMP DP  RH WIND       PRES   REMARKS
RICHMOND       PTCLDY    59  57  93 S8        29.77F
CHESTERFIELD*  FAIR      57  43  58 S7        29.79F
PETERSBURG*    PTCLDY    56  55  94 CALM      29.79F
HANOVER        PTCLDY    60  55  83 S6        29.78F
TAPPAHANNOCK*  PTCLDY    60  60 100 SE5       29.79F
QUINTON*       FAIR      58  58 100 S5        29.78F
CHARLOTTSVILLE CLOUDY    63  56  78 SW6       29.73F
GORDONSVILLE*  NOT AVBL
ORANGE*        CLOUDY    63  55  77 S6        29.74F
LOUISA*        CLOUDY    66  61  82 S5        29.73F
BUMPASS*       NOT AVBL
FARMVILLE*     CLOUDY    64  59  83 S8        29.74F
CREWE*         NOT AVBL
FORT PICKETT*  NOT AVBL
CHASE CITY*    NOT AVBL
CLARKSVILLE*   NOT AVBL
SOUTH HILL*    CLEAR     56  56 100 S3        29.84F
LAWRENCEVILLE* NOT AVBL
EMPORIA*       FOG       48  48 100 SE3       29.81F VSB 1
$$

VAZ088>098-250900-
SOUTHEAST VIRGINIA

CITY           SKY/WX    TMP DP  RH WIND       PRES   REMARKS
NORFOLK        CLEAR     56  54  93 S5        29.80F
VIRGINIA BEACH PTCLDY    56  53  90 SW3       29.80S
NORFOLK NAVAL  CLEAR     57  54  89 CALM      29.81F
WEST POINT*    CLEAR     59  57  92 SE5       29.80F
SALUDA*        FAIR      58  57  99 S5        29.79F
NEWPORT NEWS   CLEAR     54  53  97 S6        29.79F FOG
LANGLEY AFB    CLEAR     56  56 100 S3        29.79F
FORT EUSTIS    CLEAR     57  54  90 SE5       29.76F
WILLIAMSBURG*  CLEAR     57  57 100 CALM      29.80F
HR EXEC AP*      N/A     46  45  93 CALM      29.79F VSB 1/4
FRANKLIN*      PTCLDY    51  51  97 CALM      29.80F FOG
US460-WAKEFLD  CLEAR     54  53  97 CALM      29.79F FOG
$$

VAZ020-022-025-037-045-250900-
WEST CENTRAL AND SOUTHWEST VIRGINIA

CITY           SKY/WX    TMP DP  RH WIND       PRES   REMARKS
STAUNTON*      PTCLDY    60  52  73 S8        29.74S
WAYNESBORO*    NOT AVBL
HOT SPRINGS VA PTCLDY    54  45  71 S13G20    29.77F
LYNCHBURG      CLOUDY    60  53  77 S8        29.76F
DANVILLE       MOCLDY    63  56  78 VRB7      29.75F
SOUTH BOSTON*  FAIR      62  59  92 S8        29.76F
MARTINSVILLE   MOCLDY    60  52  74 CALM      29.77S
ROANOKE        PTCLDY    60  51  72 SE9       29.75F
BLACKSBURG     CLEAR     59  51  76 S7        29.78F
DUBLIN*        CLEAR     58  51  79 S8        29.75F
MARION*        PTCLDY    63  51  65 CALM      29.74F
HILLSVILLE*    MOCLDY    58  52  80 S8        29.75F
RICHLANDS*     FAIR      60  48  64 S9        29.69F
WISE*          CLOUDY    61  46  59 S10G18    29.68F THUNDER
ABINGDON*      PTCLDY    64  49  57 SW7       29.68F
$$

MDZ021>025-VAZ099-100-250900-
SOUTHERN MARYLAND AND THE DELMARVA PENINSULA

CITY           SKY/WX    TMP DP  RH WIND       PRES   REMARKS
PATUXENT RIVER CLEAR     61  58  90 S9        29.78F
BAY BRIDGE APT MOCLDY    55  54  94 S8        29.77F
LEONARDTOWN    CLEAR     59  55  88 S5        29.79F
DOVER          CLEAR     56  56 100 SE7       29.79F
GEORGETOWN     PTCLDY    56  54  93 S6        29.82S
EASTON         PTCLDY    60  56  87 S10       29.83F
CAMBRIDGE      PTCLDY    55  54  94 S8        29.80F
SALISBURY      CLEAR     52  52 100 CALM      29.81F
OCEAN CITY     CLEAR     53  51  93 SW5       29.82F
WALLOPS ISLAND CLEAR     53  53 100 S3        29.82S
ACCOMACK*      CLEAR     57  55  93 S6        29.81F
$$

NCZ012>017-030>032-250900-
NORTH CENTRAL AND EASTERN NORTH CAROLINA

CITY           SKY/WX    TMP DP  RH WIND       PRES   REMARKS
ROANOKE RAPIDS FAIR      52  52 100 CALM      29.79F FOG
RALEIGH        PTCLDY    61  57  87 S6        29.79F
ELIZABETH CITY FOG       50  49  96 W6        29.81S VSB 1/2
AHOSKIE*       FOG       50  49  99 CALM      29.80F VSB 1/4
EDENTON*       FOG       53  51  95 CALM      29.82S VSB 3/4
CURRITUCK*     CLEAR     55  55 100 CALM      29.81F FOG
KILL DEVIL HLS NOT AVBL
MANTEO         CLEAR     54  54 100 CALM      29.81S
CAPE HATTERAS  CLEAR     57  54  89 N3        29.78F FOG
TARBORO*       NOT AVBL
GOLDSBORO      CLEAR     57  57 100 CALM      29.78F
WASHINGTON     PTCLDY    52  51  97 CALM      29.80F
GREENVILLE     CLEAR     52  52 100 CALM      29.82F FOG
NEW BERN       FOG       52  52 100 CALM      29.80F VSB 1
WILMINGTON     PTCLDY    52  52 100 CALM      29.79F FOG
$$

VAZ048-250900-
ELSEWHERE

CITY           SKY/WX    TMP DP  RH WIND       PRES   REMARKS
HARRISBURG PA  PTCLDY    59  57  93 SE7       29.72F
BALTIMORE      PTCLDY    54  54 100 E6        29.75F
ANNAPOLIS      PTCLDY    54  53  97 S7        29.76F
ANDREWS AFB    CLEAR     61  57  87 S13       29.74F
PHILADELPHIA   MOCLDY    57  54  89 S5        29.81F
HENDERSON NC   PTCLDY    57  54  90 S5        29.78F
GREENSBORO     CLOUDY    62  56  80 S10       29.75F
ROCKY MOUNT    FOG       52  52 100 CALM      29.79F VSB 1/2
$$

VAZ100-250900-
MARINE

STATION/POSITION TIME  TEMP    WIND        PRES    WAVE   SWELL
                       AIR SEA DIR/SP/G            HT/PER HT/PER
                 (UTC) (F)     (DEG/KT/KT) (MB)    (FT/S) (FT/S)
CAPE MAY NJ      0748   53 45  170/  4/  6 1009.4F
LEWES DE         0748   59 44  180/  3/  5 1009.5F
OCEAN-CITY-INLET 0748   52 49  230/  5/  6 1010.2F
WACHAPREAGUE VA  0748   55 58  250/  2/  3 1009.4F
THOMAS POINT MD  0800   53 44  160/ 15/ 15   N/A
GOOSES REEF MD   0800   50 44  150/ 10/ 12 1008.9    1/ 2
COVE POINT MD    0748   48     180/ 10/ 11 1009.1F
SOLOMONS ISLAND  0748   57 46  190/ 11/ 13   N/A
BISHOPS HEAD MD  0748   52 51  160/  6/  7 1009.3F
PINEY POINT MD   0748          110/  7/  7   N/A
POTOMAC MD       0800   50 47  160/  6/  6 1007.8    1
CAMBRIDGE MD     0748   57 45  170/  5/  8 1008.2F
LEWISETTA VA     0748   60 49  210/  8/  9 1008.3F
RAPPAHANNOCK LGT 0748          170/  8/  9 1009.7F
YORK RVR RNG VA  0748   56     180/  8/  8 1008.3F
YORKTOWN VA      0748   60 50  180/  5/  6 1008.3F
JAMESTOWN VA     0800   58 53  110/  4/  6   N/A     0
DOMINION TERM VA 0748   59     170/  2/  3 1009.1F
KIPTOPEKE VA     0748      50  130/  3/  4   N/A
CHES BAY BRIDGE  0748   59 49  200/  4/  5 1009.0F
CAPE HENRY VA    0748   60     190/  4/  5   N/A
WILLOUBY STN VA  0748   58     210/  5/  5 1010.0F
S CRANEY ISL VA  0748   56     210/  1/  2 1009.0F
CAPE HENRY BUOY  0742      50                N/A     5/ 9   2/12
OFFSHORE WE BUOY 0751      51                N/A     5/11   3/11
64NM E OF VA BCH 0750   57 54   50/  4/  6 1008.8F   6/11   7/11
DUCK PIER NC     0748   57 49   CALM  /  2 1008.7F
44100 DUCK FRF   0735      51                N/A     7/10   3/11
44056 DUCK FRF   0730      51                N/A     5/11   3/11
OREGON INLET NC  0748          340/  2/  2   N/A
HATTERAS NC      0748   63 63   10/  1/  2 1008.2F
DIAMOND SHLS NC  0750   70 76  130/  4/  6 1008.3F   8/10   8/10
CAPE LOOKOUT NC  0700   63      10/  3/  3 1008.5F
$$




USA.gov is the U.S. government's official web portal to all federal, state and local government web resources and services.